Price, UT

8:34 PM MST on February 21, 2018 (GMT -0700)
Carbon County

Weather History for KPUC - May, 2013

Change the Weather History Date:

Tuesday, May 21, 2013

  Actual Average Record
Temperature  
Mean Temperature 56 °F -  
Max Temperature 73 °F 72 °F 89 °F (2012)
Min Temperature 41 °F 43 °F 29 °F (1974)
Degree Days  
Heating Degree Days 8    
Growing Degree Days 6 (Base 50)    
Moisture  
Dew Point 31 °F    
Average Humidity 41    
Maximum Humidity 73    
Minimum Humidity 19    
Precipitation  
Precipitation 0.00 in - - ()
Sea Level Pressure  
Sea Level Pressure 29.92 in    
Wind  
Wind Speed 5 mph (East)    
Max Wind Speed 13 mph    
Max Gust Speed 20 mph    
Visibility 10 miles    
Events      
Averages and records for this station are not official NWS values.
T = Trace of Precipitation, MM = Missing Value Source: NWS Daily Summary

Daily Weather History Graph

Daily Weather History Graph

Search for Another Location

Airport or City:

Trip Planner

Search our weather history database for the weather conditions in past years. The results will help you decide how hot, cold, wet, or windy it might be!

Date:

Astronomy

May. 21, 2013 Rise Set
Actual Time 6:03 AM MDT 8:36 PM MDT
Civil Twilight 5:32 AM MDT 9:07 PM MDT
Nautical Twilight 4:54 AM MDT 9:45 PM MDT
Astronomical Twilight 4:11 AM MDT 10:29 PM MDT
Moon 4:54 PM MDT (5/21) 3:32 AM MDT (5/21)
Length of Visible Light 15h 34m
Length of Day
14h 32m
Waxing Gibbous, 84% of the Moon is Illuminated
May 21
Waxing Gibbous
May 24
Full
May 31
Last Quarter
Jun 8
New
Jun 16
First Quarter

Hourly Weather History & Observations

Time (MDT) Temp. Windchill Dew Point Humidity Pressure Visibility Wind Dir Wind Speed Gust Speed Precip Events Conditions
12:53 AM 50.0 °F - 35.1 °F 57% 30.04 in 10.0 mi Calm Calm - N/A   Mostly Cloudy
1:53 AM 45.0 °F 43.5 °F 34.0 °F 65% 30.06 in 10.0 mi NNW 3.5 mph - N/A   Clear
2:53 AM 45.0 °F 41.8 °F 35.1 °F 68% 30.06 in 10.0 mi NE 5.8 mph - N/A   Partly Cloudy
3:53 AM 43.0 °F 38.2 °F 34.0 °F 71% 30.04 in 10.0 mi NNE 8.1 mph - N/A   Clear
4:53 AM 42.1 °F 36.6 °F 33.1 °F 70% 30.03 in 10.0 mi NNE 9.2 mph - N/A   Clear
5:53 AM 41.0 °F 37.1 °F 33.1 °F 73% 30.04 in 10.0 mi NNE 5.8 mph - N/A   Clear
6:53 AM 46.0 °F 43.1 °F 34.0 °F 63% 30.01 in 10.0 mi North 5.8 mph - N/A   Clear
7:53 AM 50.0 °F - 36.0 °F 59% 30.00 in 10.0 mi South 3.5 mph - N/A   Clear
8:53 AM 54.0 °F - 36.0 °F 51% 30.01 in 10.0 mi SSE 3.5 mph - N/A   Clear
9:53 AM 57.9 °F - 35.1 °F 42% 29.99 in 10.0 mi Variable 6.9 mph - N/A   Clear
10:53 AM 61.0 °F - 34.0 °F 36% 29.99 in 10.0 mi ESE 4.6 mph - N/A   Clear
11:53 AM 64.0 °F - 30.9 °F 29% 29.97 in 10.0 mi SSE 3.5 mph - N/A   Clear
12:53 PM 66.9 °F - 28.0 °F 23% 29.93 in 10.0 mi South 10.4 mph - N/A   Clear
1:53 PM 68.0 °F - 27.0 °F 21% 29.92 in 10.0 mi Variable 3.5 mph - N/A   Clear
2:53 PM 69.1 °F - 28.0 °F 22% 29.89 in 10.0 mi Variable 6.9 mph 19.6 mph N/A   Clear
3:53 PM 72.0 °F - 27.0 °F 19% 29.86 in 10.0 mi SW 8.1 mph - N/A   Clear
4:53 PM 71.1 °F - 28.0 °F 20% 29.83 in 10.0 mi SSW 6.9 mph - N/A   Clear
5:53 PM 70.0 °F - 28.0 °F 21% 29.82 in 10.0 mi Variable 5.8 mph - N/A   Partly Cloudy
6:53 PM 71.1 °F - 28.9 °F 21% 29.77 in 10.0 mi SSE 12.7 mph 17.3 mph N/A   Clear
7:53 PM 66.9 °F - 28.9 °F 24% 29.76 in 10.0 mi ESE 8.1 mph - N/A   Clear
8:53 PM 63.0 °F - 28.0 °F 27% 29.77 in 10.0 mi East 5.8 mph - N/A   Clear
9:53 PM 61.0 °F - 28.0 °F 29% 29.77 in 10.0 mi NE 4.6 mph - N/A   Clear
10:53 PM 55.9 °F - 28.0 °F 34% 29.79 in 10.0 mi NE 4.6 mph - N/A   Clear
11:53 PM 53.1 °F - 28.0 °F 38% 29.78 in 10.0 mi NNE 9.2 mph - N/A   Clear